Regional Weather Roundup
Issued by NWS

Home | Current Version | Previous Version | Graphics & Text | Print | Product List | Glossary On
Versions: 1 2 3 4 5 6 7 8 9 10 11 12 13 14 15 16 17 18 19 20 21 22 23 24 25 26 27 28 29 30 31 32 33 34 35 36 37 38 39 40 41 42 43 44 45 46 47 48 49 50
000
ASUS43 KBIS 190510
RWRND

NORTH DAKOTA REGIONAL WEATHER ROUNDUP
NATIONAL WEATHER SERVICE BISMARCK ND
1200 AM CDT SAT AUG 19 2017

NOTE: "FAIR" INDICATES FEW OR NO CLOUDS BELOW 12,000 FEET WITH NO
SIGNIFICANT WEATHER AND/OR OBSTRUCTIONS TO VISIBILITY.


NDZ001>003-009>011-017-190600-
NORTHWEST NORTH DAKOTA

CITY           SKY/WX    TMP DP  RH WIND       PRES   REMARKS
WILLISTON      FAIR      70  53  54 SE6       29.85S
MINOT          FAIR      66  53  63 SE6       29.85F
MINOT AFB      FAIR      62  52  71 S7        29.84F
$$

NDZ018>021-031>035-040>046-190600-
SOUTHWEST NORTH DAKOTA

CITY           SKY/WX    TMP DP  RH WIND       PRES   REMARKS
BISMARCK       FAIR      64  55  72 SE3       29.91S
DICKINSON      FAIR      63  53  70 SE9       29.90S
GARRISON         N/A     62  56  80 CALM      29.89S
HETTINGER ARPT FAIR      64  52  64 SE8       29.94F
$$

NDZ004>008-012>016-024-026-027-054-190600-
NORTHEAST NORTH DAKOTA

CITY           SKY/WX    TMP DP  RH WIND       PRES   REMARKS
GRAND FORKS    FAIR      61  58  90 SW5       29.84F
GRND FRKS AFB  FAIR      59  57  92 SW6       29.85F
DEVILS LAKE    FAIR      63  58  83 S5        29.88F
$$

NDZ022-023-025-028>030-036>039-047>053-190600-
SOUTHEAST NORTH DAKOTA

CITY           SKY/WX    TMP DP  RH WIND       PRES   REMARKS
FARGO          FAIR      64  61  90 S6        29.88S
JAMESTOWN      FAIR      58  56  93 S3        29.90F
$$





USA.gov is the U.S. government's official web portal to all federal, state and local government web resources and services.